Location: Eschentzwiller
(47.7125°N, 7.3981°E)
Time: 03:40:48
(UTC+00:00)

Cosmos 2263 Rocket - Pass Details

Date: 27 October 2020
Orbit: 822 x 850 km, 71.0° (Epoch: 01 December)

Event Time Altitude Azimuth Distance (km) Brightness Sun altitude
Rises 17:26:59 0° 338° (NNW) 3,418 5.6 -11.8°
Reaches altitude 10° 17:30:23 10° 358° (N) 2,483 4.6 -12.4°
Maximum altitude 17:34:01 17° 38° (NE) 2,035 3.8 -13.0°
Enters shadow 17:35:42 15° 59° (ENE) 2,141 3.8 -13.2°
